Weather History for PAHO - June, 2013

Change the Weather History Date:

Wednesday, June 12, 2013

  Actual Average Record
Temperature  
Mean Temperature 52 °F -  
Max Temperature 61 °F 56 °F - (-1)
Min Temperature 44 °F 41 °F - (-1)
Degree Days  
Heating Degree Days 13    
Growing Degree Days 2 (Base 50)    
Moisture  
Dew Point 43 °F    
Average Humidity 71    
Maximum Humidity 83    
Minimum Humidity 51    
Precipitation  
Precipitation 0.00 in - - ()
Sea Level Pressure  
Sea Level Pressure 30.01 in    
Wind  
Wind Speed 7 mph (WSW)    
Max Wind Speed 16 mph    
Max Gust Speed 83 mph    
Visibility 10 miles    
Events      
Averages and records for this station are not official NWS values.
T = Trace of Precipitation, MM = Missing Value Source: NWS Daily Summary

Daily Weather History Graph

Daily Weather History Graph

Search for Another Location

Airport or City:

Trip Planner

Search our weather history database for the weather conditions in past years. The results will help you decide how hot, cold, wet, or windy it might be!

Date:

Astronomy

Jun. 12, 2013 Rise Set
Actual Time 4:47 AM AKDT 11:25 PM AKDT
Civil Twilight 3:14 AM AKDT 12:59 AM AKDT
Nautical Twilight Sun does not set Sun does not set
Astronomical Twilight Sun does not set Sun does not set
Moon 9:32 AM AKDT (6/12) 12:41 AM AKDT (6/12)
Length of Visible Light 21h 45m
Length of Day
18h 38m
Waxing Crescent, 15% of the Moon is Illuminated
Jun 12
Waxing Crescent
Jun 16
First Quarter
Jun 23
Full
Jun 29
Last Quarter
Jul 7
New

Hourly Weather History & Observations

Time (AKDT) Temp. Windchill Dew Point Humidity Pressure Visibility Wind Dir Wind Speed Gust Speed Precip Events Conditions
12:53 AM 48.0 °F - 43.0 °F 83% 30.04 in 10.0 mi North - - N/A   Clear
1:53 AM 48.0 °F - 42.1 °F 80% 30.04 in 10.0 mi NE 3.5 mph - N/A   Clear
2:53 AM 46.9 °F - 42.1 °F 83% 30.04 in 10.0 mi NE 3.5 mph - N/A   Clear
3:26 AM 46.4 °F 39.8 °F 41.0 °F 81% 30.03 in 10.0 mi SSE 16.1 mph 82.9 mph N/A   Squalls
3:53 AM 45.0 °F 42.6 °F 39.9 °F 82% 30.03 in 10.0 mi NE 4.6 mph - N/A   Clear
4:53 AM 44.1 °F 40.8 °F 39.0 °F 82% 30.03 in 10.0 mi NE 5.8 mph - N/A   Clear
5:53 AM 48.0 °F - 41.0 °F 77% 30.02 in 10.0 mi NE 3.5 mph - N/A   Clear
6:53 AM 52.0 °F - 43.0 °F 71% 30.01 in 10.0 mi ENE 4.6 mph - N/A   Clear
7:53 AM 55.9 °F - 43.0 °F 62% 30.01 in 10.0 mi ENE 3.5 mph - N/A   Clear
8:53 AM 55.9 °F - 45.0 °F 67% 30.01 in 10.0 mi SW 3.5 mph - N/A   Clear
9:53 AM 57.0 °F - 44.1 °F 62% 30.01 in 10.0 mi WSW 8.1 mph - N/A   Clear
10:53 AM 55.0 °F - 45.0 °F 69% 30.01 in 10.0 mi WSW 10.4 mph - N/A   Clear
11:53 AM 54.0 °F - 44.1 °F 69% 30.01 in 10.0 mi WSW 13.8 mph - N/A   Clear
12:51 PM 55.4 °F - 44.6 °F 67% 30.00 in 10.0 mi WSW 9.2 mph - N/A   Partly Cloudy
12:53 PM 55.9 °F - 44.1 °F 64% 30.01 in 10.0 mi WSW 9.2 mph - N/A   Partly Cloudy
1:53 PM 52.0 °F - 44.1 °F 74% 30.01 in 10.0 mi WSW 11.5 mph - N/A   Scattered Clouds
2:53 PM 51.1 °F - 43.0 °F 74% 30.01 in 10.0 mi WSW 13.8 mph - N/A   Scattered Clouds
3:53 PM 52.0 °F - 43.0 °F 71% 30.01 in 10.0 mi WSW 13.8 mph - N/A   Scattered Clouds
4:53 PM 59.0 °F - 42.1 °F 53% 30.00 in 10.0 mi WSW 13.8 mph - N/A   Clear
5:53 PM 60.1 °F - 42.1 °F 51% 29.99 in 10.0 mi SW 12.7 mph - N/A   Clear
6:53 PM 55.9 °F - 43.0 °F 62% 30.00 in 10.0 mi WSW 13.8 mph 20.7 mph N/A   Clear
7:53 PM 52.0 °F - 43.0 °F 71% 30.00 in 10.0 mi WSW 11.5 mph - N/A   Clear
8:53 PM 59.0 °F - 43.0 °F 55% 30.00 in 10.0 mi West 4.6 mph - N/A   Clear
9:53 PM 55.9 °F - 44.1 °F 64% 30.00 in 10.0 mi Calm Calm - N/A   Clear
10:53 PM 51.1 °F - 44.1 °F 77% 30.01 in 10.0 mi Calm Calm - N/A   Clear
11:53 PM 48.9 °F - 44.1 °F 83% 30.02 in 10.0 mi Calm Calm - N/A   Clear